User: anonymous   Login
Location: Unspecified
(0.0000°N, 0.0000°E)
Time: 17:21:25
(UTC+01:00)
Language:

Meteor 2-8 Rocket - Orbit

View from above orbital plane
View from above orbital plane
View from above satellite
View from above satellite

Ground track
Ground track

The orbit data is extracted from the following two-line orbital elements,

1 13114U 82025B   15028.91612728  .00000012  00000-0 -27568-5 0  6195
2 13114 082.5412 175.2386 0015659 077.3788 084.8388 13.84637285659974
Epoch (UTC): 28 January 2015 21:59:13
Eccentricity: 0.0015659
inclination: 82.5412°
perigee height: 936 km
apogee height: 959 km
right ascension of ascending node: 175.2386°
argument of perigee: 77.3788°
revolutions per day: 13.84637285
mean anomaly at epoch: 84.8388°
orbit number at epoch: 65997

The dashed part of the orbit path shows where the satellite is in the earth's shadow,  

DLR